Terminal Aerodrome Forecast
Issued by NWS

Home | Current Version | Previous Version | Text Only | Print | Product List | Glossary On
Versions: 1 2 3 4 5 6 7 8 9 10 11 12 13 14 15 16 17 18 19 20 21
000
FTUS44 KSJT 170520
TAFSOA
TAF
KSOA 170520Z 1706/1806 16005KT P6SM SCT200
     FM170900 17006KT P6SM SCT018
     FM171530 18009KT P6SM SCT040=

USA.gov is the U.S. government's official web portal to all federal, state and local government web resources and services.